• In Hungary
  • List of Countries
  • For 7 days
  • Water Temperature
  • Satellite Maps
  • Weather Map
  • News
  • Weather Widgets
  • user-avatar
    Login

    Hourly Weather Sharalday

    Today, 25 June, Monday

    Time Temperature Precipitation Wind Pressure Humidity
    00:00 +15°C° 0 mm 2 mps 692 mmHg 88%
    01:00 +14°C° 0 mm 2 mps 692 mmHg 87%
    02:00 +14°C° 0 mm 2 mps 692 mmHg 88%
    03:00 +14°C° 0 mm 2 mps 692 mmHg 88%
    04:00 +14°C° 0 mm 2 mps 692 mmHg 88%
    05:00 +14°C° 0 mm 3 mps 692 mmHg 82%
    06:00 +17°C° 0 mm 4 mps 692 mmHg 76%
    07:00 +17°C° 0 mm 5 mps 692 mmHg 70%
    08:00 +17°C° 0.2 mm 5 mps 692 mmHg 69%
    09:00 +19°C° 0.2 mm 5 mps 692 mmHg 69%
    10:00 +19°C° 0.2 mm 5 mps 692 mmHg 68%
    11:00 +20°C° 0.3 mm 5 mps 692 mmHg 64%
    12:00 +22°C° 0.3 mm 6 mps 692 mmHg 61%
    13:00 +23°C° 0.3 mm 6 mps 692 mmHg 57%
    14:00 +22°C° 0.7 mm 6 mps 693 mmHg 60%
    15:00 +22°C° 0.7 mm 6 mps 693 mmHg 62%
    16:00 +22°C° 0.7 mm 6 mps 693 mmHg 65%
    17:00 +21°C° 0.7 mm 5 mps 693 mmHg 70%
    18:00 +19°C° 0.7 mm 4 mps 693 mmHg 74%
    19:00 +18°C° 0.7 mm 3 mps 693 mmHg 79%
    20:00 +17°C° 0.2 mm 3 mps 693 mmHg 82%
    21:00 +16°C° 0.2 mm 2 mps 693 mmHg 85%
    22:00 +15°C° 0.2 mm 2 mps 693 mmHg 87%
    23:00 +15°C° 0.1 mm 1 mps 694 mmHg 88%

    Tomorrow, 26 June, Tuesday

    Time Temperature Precipitation Wind Pressure Humidity
    00:00 +14°C° 0.1 mm 1 mps 694 mmHg 89%
    01:00 +14°C° 0.1 mm 1 mps 694 mmHg 90%
    02:00 +14°C° 0 mm 1 mps 694 mmHg 91%
    03:00 +14°C° 0 mm 1 mps 694 mmHg 92%
    04:00 +13°C° 0 mm 1 mps 694 mmHg 92%
    05:00 +15°C° 0 mm 1 mps 694 mmHg 88%
    06:00 +16°C° 0 mm 1 mps 695 mmHg 84%
    07:00 +18°C° 0 mm 1 mps 695 mmHg 80%
    08:00 +19°C° 0.1 mm 2 mps 696 mmHg 73%
    09:00 +20°C° 0.1 mm 2 mps 696 mmHg 65%
    10:00 +22°C° 0.1 mm 3 mps 696 mmHg 58%
    11:00 +24°C° 0.4 mm 3 mps 696 mmHg 56%
    12:00 +24°C° 0.4 mm 3 mps 696 mmHg 55%
    13:00 +25°C° 0.4 mm 4 mps 696 mmHg 54%
    14:00 +25°C° 0.5 mm 4 mps 697 mmHg 55%
    15:00 +25°C° 0.5 mm 3 mps 697 mmHg 56%
    16:00 +25°C° 0.5 mm 3 mps 697 mmHg 57%
    17:00 +24°C° 0.2 mm 3 mps 697 mmHg 58%
    18:00 +23°C° 0.2 mm 2 mps 697 mmHg 60%
    19:00 +23°C° 0.2 mm 2 mps 697 mmHg 62%
    20:00 +20°C° 0 mm 2 mps 697 mmHg 67%
    21:00 +19°C° 0 mm 1 mps 697 mmHg 72%
    22:00 +16°C° 0 mm 1 mps 697 mmHg 76%
    23:00 +15°C° 0 mm 1 mps 697 mmHg 79%

    Day after tomorrow, 27 June, Wednesday

    Time Temperature Precipitation Wind Pressure Humidity
    00:00 +14°C° 0 mm 0 mps 697 mmHg 81%
    01:00 +13°C° 0 mm 0 mps 698 mmHg 83%
    02:00 +13°C° 0 mm 0 mps 698 mmHg 84%
    03:00 +13°C° 0 mm 0 mps 698 mmHg 85%
    04:00 +12°C° 0 mm 0 mps 698 mmHg 86%
    05:00 +15°C° 0 mm 0 mps 698 mmHg 77%
    06:00 +19°C° 0 mm 1 mps 698 mmHg 69%
    07:00 +22°C° 0 mm 1 mps 699 mmHg 61%
    08:00 +24°C° 0 mm 1 mps 699 mmHg 54%
    09:00 +26°C° 0 mm 2 mps 699 mmHg 47%
    10:00 +28°C° 0 mm 2 mps 699 mmHg 40%
    11:00 +29°C° 0 mm 2 mps 699 mmHg 37%
    12:00 +30°C° 0 mm 2 mps 698 mmHg 34%
    13:00 +31°C° 0 mm 3 mps 698 mmHg 31%
    14:00 +31°C° 0 mm 3 mps 698 mmHg 30%
    15:00 +31°C° 0 mm 3 mps 698 mmHg 29%
    16:00 +31°C° 0 mm 3 mps 697 mmHg 28%
    17:00 +30°C° 0 mm 2 mps 697 mmHg 33%
    18:00 +28°C° 0 mm 2 mps 697 mmHg 38%
    19:00 +27°C° 0 mm 2 mps 697 mmHg 44%
    20:00 +24°C° 0 mm 1 mps 696 mmHg 48%
    21:00 +22°C° 0 mm 1 mps 696 mmHg 53%
    22:00 +20°C° 0 mm 1 mps 696 mmHg 58%
    23:00 +19°C° 0 mm 1 mps 696 mmHg 60%

    28 June, Thursday

    Time Temperature Precipitation Wind Pressure Humidity
    00:00 +19°C° 0 mm 1 mps 696 mmHg 61%
    01:00 +18°C° 0 mm 1 mps 696 mmHg 63%
    02:00 +18°C° 0 mm 1 mps 696 mmHg 64%
    03:00 +16°C° 0 mm 1 mps 696 mmHg 66%
    04:00 +16°C° 0 mm 1 mps 695 mmHg 67%
    05:00 +20°C° 0 mm 1 mps 696 mmHg 61%
    06:00 +22°C° 0 mm 1 mps 696 mmHg 54%
    07:00 +25°C° 0 mm 1 mps 696 mmHg 47%
    08:00 +27°C° 0 mm 1 mps 696 mmHg 42%
    09:00 +29°C° 0 mm 2 mps 695 mmHg 38%
    10:00 +31°C° 0 mm 2 mps 695 mmHg 33%
    11:00 +32°C° 0 mm 2 mps 695 mmHg 30%
    12:00 +34°C° 0 mm 2 mps 694 mmHg 28%
    13:00 +34°C° 0 mm 2 mps 694 mmHg 25%
    14:00 +35°C° 0 mm 2 mps 694 mmHg 24%
    15:00 +35°C° 0 mm 3 mps 694 mmHg 23%
    16:00 +35°C° 0 mm 3 mps 694 mmHg 22%
    17:00 +32°C° 0 mm 2 mps 693 mmHg 28%
    18:00 +30°C° 0 mm 2 mps 693 mmHg 33%
    19:00 +28°C° 0 mm 1 mps 693 mmHg 38%
    20:00 +26°C° 0 mm 1 mps 692 mmHg 43%
    21:00 +24°C° 0 mm 1 mps 692 mmHg 47%
    22:00 +22°C° 0 mm 1 mps 692 mmHg 52%
    23:00 +21°C° 0 mm 1 mps 692 mmHg 53%

    29 June, Friday

    Time Temperature Precipitation Wind Pressure Humidity
    00:00 +21°C° 0 mm 1 mps 692 mmHg 55%
    01:00 +20°C° 0 mm 1 mps 692 mmHg 56%
    02:00 +18°C° 0 mm 0 mps 692 mmHg 58%
    03:00 +18°C° 0 mm 0 mps 692 mmHg 61%
    04:00 +17°C° 0 mm 0 mps 692 mmHg 63%
    05:00 +19°C° 0.1 mm 0 mps 692 mmHg 62%
    06:00 +22°C° 0.1 mm 1 mps 692 mmHg 60%
    07:00 +23°C° 0.1 mm 1 mps 692 mmHg 59%
    08:00 +25°C° 0 mm 1 mps 692 mmHg 52%
    09:00 +28°C° 0 mm 1 mps 692 mmHg 45%
    10:00 +30°C° 0 mm 1 mps 692 mmHg 37%
    11:00 +31°C° 0 mm 1 mps 692 mmHg 35%
    12:00 +31°C° 0 mm 2 mps 692 mmHg 32%
    13:00 +32°C° 0 mm 2 mps 691 mmHg 30%
    14:00 +32°C° 0 mm 2 mps 691 mmHg 31%
    15:00 +31°C° 0 mm 2 mps 691 mmHg 32%
    16:00 +31°C° 0 mm 2 mps 691 mmHg 33%
    17:00 +30°C° 0 mm 2 mps 691 mmHg 37%
    18:00 +28°C° 0 mm 2 mps 691 mmHg 41%
    19:00 +27°C° 0 mm 2 mps 691 mmHg 44%
    20:00 +25°C° 0 mm 1 mps 691 mmHg 48%
    21:00 +23°C° 0 mm 1 mps 691 mmHg 52%
    22:00 +22°C° 0 mm 1 mps 691 mmHg 56%
    23:00 +21°C° 0 mm 1 mps 690 mmHg 58%

    30 June, Saturday

    Time Temperature Precipitation Wind Pressure Humidity
    00:00 +20°C° 0 mm 1 mps 690 mmHg 60%
    01:00 +19°C° 0 mm 1 mps 690 mmHg 63%
    02:00 +18°C° 0 mm 1 mps 690 mmHg 64%
    03:00 +18°C° 0 mm 1 mps 689 mmHg 66%
    04:00 +16°C° 0 mm 1 mps 689 mmHg 67%
    05:00 +20°C° 0 mm 1 mps 689 mmHg 60%
    06:00 +22°C° 0 mm 1 mps 690 mmHg 53%
    07:00 +24°C° 0 mm 1 mps 690 mmHg 46%
    08:00 +26°C° 0 mm 2 mps 690 mmHg 41%
    09:00 +28°C° 0 mm 2 mps 690 mmHg 36%
    10:00 +30°C° 0 mm 2 mps 690 mmHg 31%
    11:00 +31°C° 0 mm 2 mps 689 mmHg 28%
    12:00 +32°C° 0 mm 2 mps 689 mmHg 26%
    13:00 +34°C° 0 mm 2 mps 689 mmHg 23%
    14:00 +34°C° 0 mm 2 mps 689 mmHg 23%
    15:00 +34°C° 0 mm 2 mps 688 mmHg 22%
    16:00 +34°C° 0 mm 3 mps 688 mmHg 22%
    17:00 +31°C° 0 mm 3 mps 688 mmHg 26%
    18:00 +30°C° 0 mm 3 mps 688 mmHg 31%
    19:00 +28°C° 0 mm 3 mps 687 mmHg 35%
    20:00 +26°C° 0 mm 3 mps 687 mmHg 38%
    21:00 +24°C° 0 mm 2 mps 687 mmHg 41%
    22:00 +21°C° 0 mm 2 mps 687 mmHg 45%
    23:00 +20°C° 0 mm 2 mps 686 mmHg 48%
    Show more